Regional Weather Roundup
Issued by NWS Charleston, SC

Current Version | Previous Version | Graphics & Text | Print | Product List | Glossary On
Versions: 1 2 3 4 5 6 7 8 9 10 11 12 13 14 15 16 17 18 19 20 21 22 23 24 25 26 27 28 29 30 31 32 33 34 35 36 37 38 39 40 41 42 43 44 45 46 47 48 49 50
000 ASUS42 KCHS 202012 RWRCHS REGIONAL WEATHER ROUNDUP NATIONAL WEATHER SERVICE CHARLESTON SC 300 PM EST FRI JAN 20 2017 NOTE: "FAIR" INDICATES FEW OR NO CLOUDS BELOW 12,000 FEET WITH NO SIGNIFICANT WEATHER AND/OR OBSTRUCTIONS TO VISIBILITY. NOT ALL STATIONS ARE QUALITY CONTROLLED. USE DATA WITH CAUTION... ESPECIALLY DEWPOINT OBSERVATIONS. SCZ027-030-031-034>040-042>050-202100- ...SOUTHEAST SOUTH CAROLINA... CITY SKY/WX TMP DP RH WIND PRES REMARKS N CHARLESTON MOSUNNY 75 59 57 SW9 29.84F WATERFRONT PRK N/A 73 62 68 W6 29.84R MOUNT PLEASANT FAIR 75 61 60 SW12 29.84F JOHNS ISLAND FAIR 75 61 60 W12G17 29.85F PINOPOLIS N/A 70 63 78 CALM 29.76F MONCKS CORNER FAIR 73 59 60 CALM 29.84S SUMMERVILLE FAIR 75 61 60 SW7 29.85F BEAUFORT MCAS MOSUNNY 75 61 61 W9 29.86F BEAUFORT ARPT FAIR 73 61 64 W9 29.86S HILTON HEAD IS MOSUNNY 73 63 68 SE7 29.87F WALTERBORO CLOUDY 72 61 68 W8 29.86S ALLENDALE FAIR 73 61 64 VRB7 29.84S ...SOUTHERN MIDLANDS AND PEE DEE... CITY SKY/WX TMP DP RH WIND PRES REMARKS GEORGETOWN FAIR 73 61 64 W7 29.84F KINGSTREE CLOUDY 72 57 60 SW5 29.83S ORANGEBURG MOSUNNY 74 58 57 SW10 29.83F BARNWELL FAIR 75 63 64 SW5 29.84S AIKEN FAIR 73 55 53 SW9 29.85S MANNING MOCLDY 72 57 60 SW9 29.84R COLUMBIA MOSUNNY 78 56 46 SW15G22 29.81F SUMTER MOSUNNY 75 58 54 W9 29.79F FLORENCE PTSUNNY 74 59 59 W10 29.83S MYRTLE BEACH MOSUNNY 73 61 64 SE15 29.83F N MYRTLE BEACH MOSUNNY 68 60 75 S8 29.82F $$ GAZ063-065-086>088-099>101-113>116-118-119-134>141-150-202100- ...SOUTHEAST GEORGIA... CITY SKY/WX TMP DP RH WIND PRES REMARKS SAVANNAH ARPT MOSUNNY 76 60 57 W9 29.85F HUNTER AAF MOSUNNY 78 66 65 W8 29.83F FORT STEWART PTSUNNY 79 61 53 VRB6 29.83 STATESBORO MOSUNNY 75 63 66 W12 29.87R SYLVANIA MOCLDY N/A N/A N/A NW9 29.86F CLAXTON FAIR 76 76 99 SW12G17 29.87S ...CSRA...CENTRAL AND FAR SOUTHEAST GEORGIA... CITY SKY/WX TMP DP RH WIND PRES REMARKS THOMSON MOSUNNY 80 58 47 W12 29.86F AUGUSTA-BUSH MOSUNNY 79 56 45 W9 29.81F AUGUSTA-DANIEL MOSUNNY 78 53 41 W8 29.82F SWAINSBORO MOCLDY 73 59 60 MISG 29.87F VIDALIA CLOUDY 73 64 73 W9 29.87S EASTMAN MOCLDY 75 53 45 W7 29.89F HAZLEHURST FAIR 76 65 67 SW5 29.86F ALMA PTSUNNY 77 63 61 W10 29.87F WAYCROSS PTSUNNY 80 67 64 W7 29.87S JESUP FAIR 79 59 50 W7 29.87S BAXLEY FAIR 77 66 69 SW12 29.87S BRUNSWICK PTSUNNY 79 64 61 W8 29.87F SAINT SIMONS SUNNY 79 62 56 W9 29.86F $$ SCZ027-028-034-036>038-045-046-048>050-GAZ119-141-202100- ...LAKE AND SUPPLEMENTAL COASTAL OBSERVATIONS... STATION/POSITION TIME TEMP WIND PRES WAVE SWELL AIR SEA DIR/SP/G HT/PER HT/PER/DIR (UTC) (F) (DEG/KT/KT) (MB) (FT/S) (FT/S/D) WINYAH BAY 1845 73 210/ 9 1010.0 LAKE MURRAY 1920 69 190/ 6/ 11 1009.1 ACE BASIN NERRS 1845 71 260/ 5 1012.0 FORT PULASKI 1936 74 58 300/ 4/ 4 1011.2F SAPELO ISLAND 1900 75 290/ 6 1011.0 $$ ANZ835-935-AMZ111-154-330-350-352-354-370-450-454-472-202100- ...C-MAN AND BUOY OBSERVATIONS... STATION/POSITION TIME TEMP WIND PRES WAVE SWELL AIR SEA DIR/SP/G HT/PER HT/PER/DIR (UTC) (F) (DEG/KT/KT) (MB) (FT/S) (FT/S/D) BUOY 41004 1850 71 71 230/ 17/ 19 1010.8 3/ 4 2/ 90/ 8 BUOY 41008 1850 63 60 200/ 6/ 8 1011.4 2/ 9 2/ 70/ 9 FOLLY BEACH CMAN 1900 62 220/ 14/ 16 1011.9F CAPERS NEARSHORE 1908 60 56 220/ 14/ 16 1010.8F FRIPP NEARSHORE 1908 61 58 220/ 8/ 10 1011.2F STATION/POSITION TIME TEMP WIND PRES WAVE SWELL AIR SEA DIR/SP/G HT/PER HT/PER/DIR (UTC) (F) (DEG/KT/KT) (MB) (FT/S) (FT/S/D) 5E ST. MARYS GA 1930 65 N/A 2/11 FRYING PAN BUOY 1950 71 71 230/ 16/ 21 1010.8S 3/13 2/ 80/13 BUOY 41025 1950 71 76 180/ 19/ 23 1009.9F 5/11 3/ 60/11 CAPE LOOKOUT NC 1900 68 190/ 7/ 8 1009.7F BUOY 41002 1950 71 70 160/ 10/ 12 1012.6F 6/14 5/360/14 BUOY 41010 NOT AVBL ST AUGUSTINE FL 2000 80 63 250/ 10/ 13 1012.4F $$

USA.gov is the U.S. government's official web portal to all federal, state and local government web resources and services.